Powrót do katalogu

FLOCK 4H 29

AktywnyNaukaSSO
NORAD 66732·PAYLOAD·🇺🇸 United States

Wystrzelony Nov 28, 2025 z Vandenberg Space Force Base

Loading…

Następne Przeloty (najbliższe 24 godziny)

TLE

ŚwieżeSource: CelesTrak SupGP

Epoka: Sep 14, 2026, 14:44 UTC

1 66732C 25276BU  26257.61422454  .00008392  00000+0  38266-3 0  2572
2 66732  97.4097 329.5148 0004874  79.7172 296.0819 15.20700032    16

Śledź FLOCK 4H 29 w czasie rzeczywistym z AllMySat

Download on the App Store